Hors Challenge

Le Trail Des Terrils - Roux (28.00 km)

dimanche 17 novembre 2019

Vous pouvez trouver Le classement original sur : https://my2.raceresult.com
 
LE TRAIL DES TERRILS - ROUX
DISTANCE : 28.00 km
dimanche 17 novembre 2019
 
Place dos NOM Catégorie Pl/cat temps temps/km Vitesse
01:00:00              
1 321 ROMAIN BERTI SH 1 2:16:04 04:52 12.35
2 89 ELIO POGGI SH 2 2:22:42 05:06 11.77
3 214 KLAAS EECLOO SH 3 2:22:42 05:06 11.77
4 114 MATTHIAS WALLAERT SH 4 2:23:02 05:07 11.75
5 49 WILLEM VAN DELSEN SH 5 2:25:24 05:12 11.55
6 344 KENNY GEENS SH 6 2:26:33 05:14 11.46
7 37 THIBAULT MELIN SH 7 2:27:25 05:16 11.40
8 330 LANDER DEWEER SH 8 2:29:42 05:21 11.22
9 5979 JEROME BRULIAU SH 9 2:29:47 05:21 11.22
10 206 KESS HEYTENS SH 10 2:30:24 05:22 11.17
11 5983 RUDI DUMOULIN V2 1 2:31:06 05:24 11.12
12 33 TIM HEYMANS SH 11 2:33:09 05:28 10.97
13 6316 AURÉLIEN HANTSON SH 12 2:33:12 05:28 10.97
14 124 WOUTER VAN PARYS SH 13 2:33:30 05:29 10.94
15 43 GILLES LEBOUTTE SH 14 2:35:02 05:32 10.84
16 165 CÉDRIC BERTRAND V1 1 2:35:25 05:33 10.81
17 5803 MICHAEL BYLOOS SH 15 2:36:43 05:36 10.72
18 238 MICHAËL TRIVILINI SH 16 2:39:02 05:41 10.56
19 3255 FRÉDÉRIC DE WITTE V1 2 2:39:04 05:41 10.56
20 403 JONAS GOOSSENS SH 17 2:39:08 05:41 10.56
21 6307 GEERT GEEBELS SH 18 2:39:24 05:42 10.54
22 6020 JULIE VANDAELE SD 1 2:39:40 05:42 10.52
23 28 GREGORY DEPAUW SH 19 2:39:44 05:42 10.52
24 5978 FREDERIC BISCAGLIA SH 20 2:39:46 05:42 10.52
25 298 JONATHAN DELOBBE SH 21 2:39:52 05:43 10.51
26 411 JEREMY RAGUIN SH 22 2:41:08 05:45 10.43
27 500 SAM GILBERT SH 23 2:42:45 05:49 10.32
28 27 PIETER VERHEES SH 24 2:43:43 05:51 10.26
29 375 NICOLAS CHARLOTEAUX V1 3 2:44:37 05:53 10.21
30 249 GLENN DECRAENE SH 25 2:44:42 05:53 10.20
31 53 KEN GILBERT SH 26 2:44:55 05:53 10.19
32 473 GAETAN WIBOU SH 27 2:45:55 05:56 10.13
33 150 ERIK COCQUEREAUX V1 4 2:46:40 05:57 10.08
34 138 MARIE JENNEQUIN SD 2 2:47:04 05:58 10.06
35 256 STÉPHANE MASSON V1 5 2:47:12 05:58 10.05
36 17 MATTHIEU WOLFF SH 28 2:47:23 05:59 10.04
37 24 BRUNO HERMAN SH 29 2:50:52 06:06 9.83
38 191 JEAN-ERIK VERBEKE SH 30 2:51:06 06:07 9.82
39 6032 ANTHOINE BLONDIAU SH 31 2:52:04 06:09 9.76
40 293 DIEDERIK VANDENEEDE V1 6 2:53:09 06:11 9.70
41 176 SERGE MOL V1 7 2:54:35 06:14 9.62
42 215 PIET LAREU V2 2 2:54:51 06:15 9.61
43 42 STEF HUBRECHT SH 32 2:54:53 06:15 9.61
44 29 JEROEN VANDROMME SH 33 2:55:21 06:16 9.58
45 416 PHILIPPE RUST V1 8 2:55:22 06:16 9.58
46 459 IVO STEVENS V1 9 2:55:46 06:17 9.56
47 5984 JEAN-CHRISTOPHE CLOTUCHE V1 10 2:55:57 06:17 9.55
48 3163 FREDERIC HENRARD V1 11 2:56:16 06:18 9.53
49 310 BRIAN BURGESS V2 3 2:56:34 06:18 9.51
50 3141 FREDERIC GRAUMANN V1 12 2:57:03 06:19 9.49
51 6306 MARLON AMADDEO SH 34 2:57:32 06:20 9.46
52 6339 YANAËL FAINGNAERT SH 35 2:57:32 06:20 9.46
53 283 LUC LIBERSENS V2 4 2:57:32 06:20 9.46
54 126 CLEMENT ROBIN SH 36 2:57:44 06:21 9.45
55 3254 DAMIEN VERBRACKEN SH 37 2:57:50 06:21 9.45
56 5966 ANNELEEN GOFFIN SD 3 2:58:44 06:23 9.40
57 3138 FRANÇOIS LAMBERT SH 38 2:59:32 06:25 9.36
58 387 QUENTIN PETERS SH 39 2:59:40 06:25 9.35
59 246 GIL DUFRANE V2 5 3:01:06 06:28 9.28
60 154 DIETER RIEMAEKER SH 40 3:01:08 06:28 9.27
61 51 KAREL VANDEN THOREN SH 41 3:01:32 06:29 9.25
62 6059 MAXIME MOUSTY SH 42 3:01:36 06:29 9.25
63 361 BENNABI MIKE V2 6 3:01:43 06:29 9.25
64 76 PASCALE LAHURE A1 1 3:01:54 06:30 9.24
65 125 CHRISTOPHE LEROT SH 43 3:02:07 06:30 9.22
66 183 BIRGER VAN EXE V1 13 3:02:31 06:31 9.20
67 237 MARC CHARLES V2 7 3:02:36 06:31 9.20
68 210 SÉBASTIEN MABILLE SH 44 3:03:05 06:32 9.18
69 6358 MICHAL KOLATAJ SH 45 3:03:14 06:33 9.17
70 19 DAVID VAN RANST SH 46 3:05:03 06:37 9.08
71 6088 KJELL BOSMANS V1 14 3:05:12 06:37 9.07
72 3130 MICHEL BENOIT V3 1 3:05:43 06:38 9.05
73 3203 JOHAN SMEYERS V2 8 3:05:45 06:38 9.04
74 30 TIM BISAERTS SH 47 3:05:48 06:38 9.04
75 193 NICOLAS RENARD SH 48 3:05:59 06:39 9.03
76 415 ANTHONY FAZIO SH 49 3:06:30 06:40 9.01
77 417 MAXIME GANTIEZ SH 50 3:06:31 06:40 9.01
78 6327 GÉRALD DE MONTE V1 15 3:07:06 06:41 8.98
79 280 EMMANUËL DEMETS V1 16 3:08:07 06:43 8.93
80 5862 MEHMET DALATAS V1 17 3:09:30 06:46 8.87
81 137 LIESBETH BOURGEOIS SD 4 3:10:32 06:48 8.82
82 271 DIMITRI MICHAUX V1 18 3:11:18 06:50 8.78
83 360 CEDRIC CHARLET V1 19 3:12:00 06:51 8.75
84 6065 ROMAIN VOISIN SH 51 3:12:18 06:52 8.74
85 6024 NICOLAS SCHMIDT SH 52 3:12:28 06:52 8.73
86 192 THOMAS RENARD SH 53 3:13:35 06:55 8.68
87 70 THOMAS CUISINIER V1 20 3:13:36 06:55 8.68
88 102 JASON QUITTELIER SH 54 3:14:17 06:56 8.65
89 445 CHRISTOPHE STOKX V1 21 3:15:33 06:59 8.59
90 6000 OLIVIER EULAERTS V1 22 3:16:55 07:02 8.53
91 450 ARNAUD BAUGNÉE SH 55 3:17:19 07:03 8.51
92 250 OLIVIER VALET V2 9 3:18:21 07:05 8.47
93 38 SVEN RUBBEN V1 23 3:19:14 07:07 8.43
94 3136 ÉRIC BOEREBOOM V1 24 3:21:43 07:12 8.33
95 251 JEAN-FRANÇOIS DEVOS V1 25 3:21:44 07:12 8.33
96 57 JOKE SAELENS A1 2 3:24:23 07:18 8.22
97 6089 HUBERT MAHOUCHE V2 10 3:26:54 07:23 8.12
98 442 MICHAEL BARROIS V1 26 3:26:56 07:23 8.12
99 15 BART BONNAERENS V1 27 3:27:02 07:24 8.11
100 55 MICHAËL VERHEECKE V1 28 3:27:40 07:25 8.09
101 252 STEPHANE GILLARD V1 29 3:29:12 07:28 8.03
102 6309 ARNAUD COMPÈRE V1 30 3:30:28 07:31 7.98
103 31 BEN VAN BAEL SH 56 3:31:58 07:34 7.93
104 54 JAN VAN BAEL SH 57 3:32:04 07:34 7.92
105 463 WOUTER DE WITTE SH 58 3:32:09 07:35 7.92
106 69 TOM ROGIE V1 31 3:32:59 07:36 7.89
107 4 ERIC BUSSI SH 59 3:33:11 07:37 7.88
108 418 ERIC HOUDIN SH 60 3:33:29 07:37 7.87
109 66 PIETERJAN MAES SH 61 3:33:53 07:38 7.85
110 264 KÉVIN SCHOLLAERT SH 62 3:34:27 07:40 7.83
111 376 STEPHAN DECEUNINCK V1 32 3:36:27 07:44 7.76
112 484 MICHEL HOTAT V2 11 3:37:07 07:45 7.74
113 335 FABRICE WARGNIES V1 33 3:39:16 07:50 7.66
114 10 OLIVIER PLUVINAGE V1 34 3:41:15 07:54 7.59
115 5844 DAVID VALENTI V1 35 3:42:49 07:57 7.54
116 197 STÉPHANE LABY V1 36 3:44:40 08:01 7.48
117 201 LAURENCE STAQUET SD 5 3:45:01 08:02 7.47
118 369 JEAN-MARIE FILISETTI V1 37 3:45:12 08:03 7.46
119 166 CRYSTAL FURUYA A1 3 3:46:46 08:06 7.41
120 182 JUAN CARLOS ORTUNO V1 38 3:48:00 08:09 7.37
121 152 KATLEEN DE PAUW A1 4 3:48:01 08:09 7.37
122 3252 WOUTER DE BRUYNE SH 63 3:52:49 08:19 7.22
123 6023 PIEN HOOGERVORST SD 6 3:52:52 08:19 7.21
124 78 VINCENT RAPPEZ V1 39 3:53:05 08:19 7.21
125 3202 VINCENT VALETTE SH 64 3:54:13 08:22 7.17
126 275 MIGUEL BONETTO SH 65 3:55:10 08:24 7.14
127 209 FRANCOIS BARBEZ V2 12 3:56:57 08:28 7.09
128 11 THIBAULT DUJARDIN-BAZIER SH 66 3:59:27 08:33 7.02
129 120 INGE BAUTERS A1 5 4:02:41 08:40 6.92
130 123 THOMAS BECKERS SH 67 4:02:43 08:40 6.92
131 14 STEEVE DEMOULIN V1 40 4:03:53 08:43 6.89
132 336 RODOLFO CHERCHI V2 13 4:19:15 09:16 6.48
133 6362 FRANÇOIS VANNESTE SH 68 5:12:02 11:09 5.38
               
Nos dernières videos